sat.trackr.live / text

‹ back to catalog

FOSSASA-2E23

NORAD 66788 · 2025-276EC

PAYLOAD ACTIVE UNKNOWN

§ Identity

Operator
Country
SPN
Launch date
2025-11-28
Launch site
AFWTR
Launch vehicle
Mass (kg)
RCS (m²)

External: N2YO · Heavens-Above · Gunter

§ Orbital elements

Epoch: 2026-09-20T11:03:35.952192Z

Period
94.55 min
Inclination
97.4161°
Eccentricity
0.0006138
Mean motion
15.22998167 rev/d
Perigee alt
492.6 km
Apogee alt
501.0 km
Semi-major
6,874.9 km
B*
2.4615e-4
RAAN
335.9597°
Arg perigee
141.9638°
Mean anomaly
218.2033°
Rev number
4,492

§ Raw data

FOSSASA-2E231 66788U 25276EC  26263.46083278  .00005720  00000+0  24615-3 0  99982 66788  97.4161 335.9597 0006138 141.9638 218.2033 15.22998167 44924

JSON: /api/v1/satellites/66788 · /tle

For live sub-satellite position, see the globe view (requires WebGL).

§ Visibility from observer

Set your observer location to see the next 7 days of passes ≥ 10°. The values pass through the URL so the page stays shareable.

No JS? Fill the form by hand. The geolocation button needs JavaScript.